sat.trackr.live / text

‹ back to catalog

YAOGAN-30 05B

NORAD 43171 · 2018-011C

PAYLOAD ACTIVE UNKNOWN

§ Identity

Operator
Country
PRC
Launch date
2018-01-25
Launch site
XICLF
Launch vehicle
Mass (kg)
RCS (m²)

External: N2YO · Heavens-Above · Gunter

§ Orbital elements

Epoch: 2026-05-25T02:37:39.420192Z

Period
95.83 min
Inclination
34.9957°
Eccentricity
0.0000907
Mean motion
15.02587014 rev/d
Perigee alt
558.3 km
Apogee alt
559.6 km
Semi-major
6,937.1 km
B*
1.8299e-4
RAAN
291.3607°
Arg perigee
153.2621°
Mean anomaly
206.8134°
Rev number
45,474

§ Raw data

YAOGAN-30 05B1 43171U 18011C   26145.10948403  .00002456  00000+0  18299-3 0  99922 43171  34.9957 291.3607 0000907 153.2621 206.8134 15.02587014454740

JSON: /api/v1/satellites/43171 · /tle

For live sub-satellite position, see the globe view (requires WebGL).

§ Visibility from observer

Set your observer location to see the next 7 days of passes ≥ 10°. The values pass through the URL so the page stays shareable.

No JS? Fill the form by hand. The geolocation button needs JavaScript.